User: anonymous   Login
Location: Conflandey
(47.7287°N, 6.0456°E)
Time: 09:17:50
(UTC+00:00)
Language:

Cosmos 1821 Rocket - Orbit

View from above orbital plane
View from above orbital plane
View from above satellite
View from above satellite

Ground track
Ground track

The orbit data is extracted from the following two-line orbital elements,

1 17526U 87017B   22019.55180584  .00000166  00000-0  15260-3 0  9994
2 17526  82.8997 226.5798 0039468 308.7437  51.0195 13.76921987736782
Epoch (UTC): 19 January 2022 13:14:36
Eccentricity: 0.0039468
inclination: 82.8997°
perigee height: 946 km
apogee height: 1004 km
right ascension of ascending node: 226.5798°
argument of perigee: 308.7437°
revolutions per day: 13.76921987
mean anomaly at epoch: 51.0195°
orbit number at epoch: 73678

The dashed part of the orbit path shows where the satellite is in the earth's shadow,  

DLR